Location: Unspecified
(0.0000°N, 0.0000°E)
Time: 23:32:04
(UTC+00:00)

GONETS D1M 1 - Pass Details

Date: 17 May 2026
Orbit: 1435 x 1447 km, 82.5° (Epoch: 7 June)

Event Time Altitude Azimuth Distance (km) Brightness Sun altitude
Rises 04:19:33 0° 142° (SE) 4,535 9.5 -22.8°
Reaches altitude 10° 04:25:16 10° 111° (ESE) 3,557 9.4 -21.4°
Maximum altitude 04:27:47 12° 93° (E) 3,437 9.6 -20.9°
Drops below altitude 10° 04:30:17 10° 76° (ENE) 3,556 9.9 -20.3°
Sets 04:35:55 0° 46° (NE) 4,532 10.5 -18.9°
